Regional Weather Roundup
Issued by NWS Bismarck, ND

Home | Current Version | Previous Version | Text Only | Print | Product List | Glossary On
Versions: 1 2 3 4 5 6 7 8 9 10 11 12 13 14 15 16 17 18 19 20 21 22 23 24 25 26 27 28 29 30 31 32 33 34 35 36 37 38 39 40 41 42 43 44 45 46 47 48 49 50
000
ASUS43 KBIS 101410
RWRBIS

NWR BROADCAST TEXT
NATIONAL WEATHER SERVICE BISMARCK ND
800 AM CST SAT DEC 10 2016

NOTE: "FAIR" INDICATES FEW OR NO CLOUDS BELOW 12,000 FEET WITH NO
SIGNIFICANT WEATHER AND/OR OBSTRUCTIONS TO VISIBILITY.


CITY           SKY/WX    TMP DP  RH WIND       PRES   REMARKS
WILLISTON      CLOUDY    -9 -15  75 NE9       30.21F WCI -26
MINOT          CLOUDY   -20 -25  77 CALM      30.30F
MINOT AFB      CLOUDY   -25 -30  77 CALM      30.31F
BISMARCK       CLOUDY   -17 -22  78 NE3       30.33F
DICKINSON      CLOUDY    -6 -11  79 SE12      30.13S WCI -25
GARRISON         N/A    -13 -17  82 E6        30.27F WCI -27
HETTINGER ARPT LGT SNOW  -5  -9  83 SE10      30.13F FOG     WCI -23
JAMESTOWN      CLOUDY   -15 -19  82 CALM      30.36F
CARRINGTON     FAIR     -17 -22  76 E3        30.38F
HAZEN          FAIR     -18 -27  63 CALM      30.32F
RUGBY            N/A    -20 -26  76 SE6       30.36F WCI -36
STANLEY        FAIR     -18 -24  76 E5        30.23F WCI -31
TIOGA          FAIR     -20 -26  76 E6        30.21F WCI -36
WATFORD CITY   FAIR      -9 -15  77 E5        30.20F WCI -21
$$

CITY           SKY/WX    TMP DP  RH WIND       PRES   REMARKS
GRAND FORKS    CLOUDY    -8 -13  78 CALM      30.49F
GRAND FORKS AF CLOUDY   -14 -20  74 CALM      30.47F
DEVILS LAKE    CLOUDY   -18 -23  77 CALM      30.38F
FARGO          CLOUDY    -5 -12  72 CALM      30.48F
CANDO          FAIR     -17 -22  76 CALM      30.40F
CAVALIER         N/A    -15 -20  76 W3        30.48F
GRAFTON        FAIR     -11 -17  77 CALM      30.51F
GWINNER        FAIR      -6  -9  84 NE5       30.42F WCI -17
LANGDON        FAIR     -18 -24  76 S5        30.37F WCI -31
ROLLA            N/A    -20 -26  76 SW7       30.32F WCI -37
WALHALLA         N/A    -17 -17 100 SW3       30.47F
$$

CITY           SKY/WX    TMP DP  RH WIND       PRES   REMARKS
ABERDEEN       CLOUDY    -5 -13  68 E8        30.40F WCI -20
MOBRIDGE       CLOUDY    -3 -11  68 E8        30.26F WCI -18
BUFFALO          N/A      0  -5  79 SE16      29.96F WCI -20
RAPID CITY     CLOUDY     1  -3  83 E10       30.03F WCI -15
GLASGOW        CLOUDY    -3  -9  75 SE14G22   30.03F WCI -22
SIDNEY         CLOUDY    -3  -8  79 E6        30.17F WCI -15
WOLF POINT     CLOUDY    -4 -11  72 E16       30.12F WCI -25
GLENDIVE       FLURRIES  -2  -6  83 E10       30.05F WCI -19
MILES CITY     CLOUDY     7   0  73 SE13      29.97F WCI  -9
BAKER          CLOUDY     0  -6  76 SE21G28   30.01F WCI -22
$$

CITY           SKY/WX    TMP DP  RH WIND       PRES   REMARKS
BILLINGS       LGT SNOW   8   4  83 CALM      29.83F FOG
GREAT FALLS    CLOUDY     0  -3  87 SW5       29.77F WCI -10
REGINA         PTCLDY   -17 -22  76 SE8       30.23F WCI -34
ESTEVAN        PTCLDY   -22 -29  69 E6        30.26F WCI -38
$$





USA.gov is the U.S. government's official web portal to all federal, state and local government web resources and services.